Regional Weather Roundup
Issued by NWS

Home | Current Version | Previous Version | Text Only | Print | Product List | Glossary Off
Versions: 1 2 3 4 5 6 7 8 9 10 11 12 13 14 15 16 17 18 19 20 21 22 23 24 25 26 27 28 29 30 31 32 33 34 35 36 37 38 39 40 41 42 43 44 45 46 47 48 49 50

441
ASUS43 KIND 200409
RWRIN

WEATHER ROUNDUP FOR INDIANA
NATIONAL WEATHER SERVICE INDIANAPOLIS IN
1200 AM EDT WED SEP 20 2017

NOTE: "FAIR" INDICATES FEW OR NO CLOUDS BELOW 12,000 FEET WITH NO
SIGNIFICANT WEATHER AND/OR OBSTRUCTIONS TO VISIBILITY.

* - STATION DOES NOT REPORT WEATHER SUCH AS PRECIPITATION OR FOG.

+ - STATION NOT QUALITY CONTROLLED BY THE NATIONAL WEATHER SERVICE.
    USE DATA WITH CAUTION...ESPECIALLY DEWPOINT AND RELATIVE
    HUMIDITY OBSERVATIONS.

INZ001>003-010>013-019-020-200500-
NORTHWEST INDIANA

CITY           SKY/WX    TMP DP  RH WIND       PRES   REMARKS
GARY /AIRPORT/ CLEAR     62  60  94 CALM      29.94S FOG
KNOX *+          N/A     59  59 100 CALM      29.94S VSB 1/4
LA PORTE +     CLEAR     61  61  99 CALM      29.96R FOG
MICHIGAN CITY+ FOG       59  59 100 CALM      29.95S VSB 3/4
MONTICELLO +   PTCLDY    64  63  96 CALM      29.93S FOG
RENSSELAER +   CLEAR     63  59  88 CALM      29.94S
VALPARAISO     CLEAR     63  62  97 CALM      29.95R FOG

$$

LMZ046-743>745-200500-
SOUTHERN LAKE MICHIGAN

STATION/POSITION TIME  TEMP    WIND        PRES    WAVE
                       AIR SEA DIR/SP/G            HT
                 (UTC) (F)     (DEG/KT/KT) (MB)    (FT)
BURNS HARBOR     0340   67      80/  6/  7 1014.2S
MICHIGAN CITY    0340   65      90/  2/  3   N/A
5NW MICH CITY    0400   67 69  120/  6/  6   N/A     1

$$

INZ004-005-014>016-021>024-200500-
NORTH CENTRAL INDIANA

CITY           SKY/WX    TMP DP  RH WIND       PRES   REMARKS
GOSHEN         MOCLDY    65  62  90 CALM      29.95S FOG
LOGANSPORT +   PTCLDY    63  61  94 CALM      29.95R
PERU/GRISSOM   CLEAR     64  64 100 SE3       29.93S
ROCHESTER +    PTCLDY    66  66 100 CALM      29.95R FOG
SOUTH BEND     CLOUDY    63  63 100 E3        29.95S FOG
WARSAW +       CLOUDY    63  63 100 CALM      29.95R FOG

$$

INZ006>009-017-018-025>027-200500-
NORTHEAST INDIANA

CITY           SKY/WX    TMP DP  RH WIND       PRES   REMARKS
AUBURN +       FOG       68  64  88 CALM      29.96S VSB 1
FORT WAYNE     FOG       65  64  97 SE5       29.96R VSB 3/4
HUNTINGTON +   PTCLDY    64  63  96 CALM      29.95S FOG
KENDALLVILLE + CLOUDY    67  67 100 SE6       29.96S FOG

$$

INZ028-029-035-036-043>045-051>053-200500-
WEST CENTRAL INDIANA

CITY           SKY/WX    TMP DP  RH WIND       PRES   REMARKS
CRAWFORDSVL +  MOCLDY    61  61 100 CALM      29.94S
GREENCASTLE +  CLEAR     64  64 100 CALM      29.95S
LAFAYETTE      CLEAR     64  64 100 CALM      29.93R
TERRE HAUTE    CLEAR     67  64  90 CALM      29.93R

$$

INZ030>032-037>040-046>048-054>057-064-065-200500-
CENTRAL INDIANA

CITY           SKY/WX    TMP DP  RH WIND       PRES   REMARKS
CP ATTERBURY +   N/A     64  63  94 CALM      29.96S VSB 1/2
FISHERS *+     PTCLDY    66  66 100 SE5       29.95R
FRANKFORT +    CLOUDY    65  64  96 CALM      29.96S
GREENWOOD *+   CLEAR     72  69  89 SE3       29.96S
INDIANAPOLIS   PTCLDY    70  67  90 S5        29.94S
-EAGLE CREEK   CLEAR     68  65  90 CALM      29.94S
KOKOMO +       MOCLDY    64  63  96 CALM      29.95S
MT COMFORT *+    N/A    N/A N/A N/A MISG        N/A
SHELBYVILLE    CLEAR     66  63  90 SE3       29.95R
ZIONSVILLE +   PTCLDY    64  64 100 CALM      29.96R FOG

$$

INZ033-034-041-042-049-050-058-059-200500-
EAST CENTRAL INDIANA

CITY           SKY/WX    TMP DP  RH WIND       PRES   REMARKS
MUNCIE         MOCLDY    70  65  84 S5        29.96R
RICHMOND +     LGT RAIN  64  64 100 E3        29.99S

$$

INZ060-061-067>069-081>083-085>088-200500-
SOUTHWEST INDIANA

CITY           SKY/WX    TMP DP  RH WIND       PRES   REMARKS
EVANSVILLE     CLEAR     70  68  93 CALM      29.94R
HUNTINGBURG +    N/A    N/A N/A N/A MISG        N/A
WASHINGTON +   CLEAR     71  69  94 S6        29.93S

$$

INZ062-063-066-070>080-084-089>092-200500-
SOUTH CENTRAL AND SOUTHEAST INDIANA

CITY           SKY/WX    TMP DP  RH WIND       PRES   REMARKS
BEDFORD +      CLEAR     68  64  88 CALM      29.95R
BLOOMINGTON    CLEAR     67  64  90 CALM      29.95R
MADISON *+       N/A     64  63  94 CALM      29.99S VSB 1/2
NORTH VERNON + CLEAR     64  64 100 CALM      29.97R
SEYMOUR +      CLEAR     68  66  94 CALM      29.96R FOG

$$





USA.gov is the U.S. government's official web portal to all federal, state and local government web resources and services.